User: anonymous   Login
Location: Donald C. Martin Observatory
(38.3885°N, 82.3916°W)
Time: 05:56:52
(UTC-04:00)
Language:

Cosmos 1484 Rocket - Orbit

View from above orbital plane
View from above orbital plane
View from above satellite
View from above satellite

Ground track
Ground track

The orbit data is extracted from the following two-line orbital elements,

1 14208U 83075B   16178.22664060  .00000223  00000-0  17379-4 0  9995
2 14208  97.3543 197.2431 0038138 279.3083  80.3835 15.09967389793788
Epoch (UTC): 26 June 2016 05:26:21
Eccentricity: 0.0038138
inclination: 97.3543°
perigee height: 510 km
apogee height: 562 km
right ascension of ascending node: 197.2431°
argument of perigee: 279.3083°
revolutions per day: 15.09967389
mean anomaly at epoch: 80.3835°
orbit number at epoch: 79378

The dashed part of the orbit path shows where the satellite is in the earth's shadow,  

DLR